Date AST Hour Ending, MW ,,,,,,,,,,,,,,,,,
5/1/2014 1:00,316,,,,,,,,,,,,,,,,,
5/1/2014 2:00,301,,,,,,,,,,,,,,,,,
5/1/2014 3:00,296,,,,,,,,,,,,,,,,,
5/1/2014 4:00,290,,,,,,,,,,,,,,,,,
5/1/2014 5:00,298,,,,,,,,,,,,,,,,,
5/1/2014 6:00,332,,,,,,,,,,,,,,,,,
5/1/2014 7:00,372,,,,,,,,,,,,,,,,,
5/1/2014 8:00,437,,,,,,,,,,,,,,,,,
5/1/2014 9:00,431,,,,,,,,,,,,,,,,,
5/1/2014 10:00,416,,,,,,,,,,,,,,,,,
5/1/2014 11:00,403,,,,,,,,,,,,,,,,,
5/1/2014 12:00,386,,,,,,,,,,,,,,,,,
5/1/2014 13:00,365,,,,,,,,,,,,,,,,,
5/1/2014 14:00,348,,,,,,,,,,,,,,,,,
5/1/2014 15:00,329,,,,,,,,,,,,,,,,,
5/1/2014 16:00,339,,,,,,,,,,,,,,,,,
5/1/2014 17:00,362,,,,,,,,,,,,,,,,,
5/1/2014 18:00,378,,,,,,,,,,,,,,,,,
5/1/2014 19:00,399,,,,,,,,,,,,,,,,,
5/1/2014 20:00,417,,,,,,,,,,,,,,,,,
5/1/2014 21:00,435,,,,,,,,,,,,,,,,,
5/1/2014 22:00,393,,,,,,,,,,,,,,,,,
5/1/2014 23:00,353,,,,,,,,,,,,,,,,,
5/2/2014 0:00,327,,,,,,,,,,,,,,,,,
5/2/2014 1:00,315,,,,,,,,,,,,,,,,,
5/2/2014 2:00,287,,,,,,,,,,,,,,,,,
5/2/2014 3:00,292,,,,,,,,,,,,,,,,,
5/2/2014 4:00,285,,,,,,,,,,,,,,,,,
5/2/2014 5:00,275,,,,,,,,,,,,,,,,,
5/2/2014 6:00,316,,,,,,,,,,,,,,,,,
5/2/2014 7:00,393,,,,,,,,,,,,,,,,,
5/2/2014 8:00,433,,,,,,,,,,,,,,,,,
5/2/2014 9:00,462,,,,,,,,,,,,,,,,,
5/2/2014 10:00,447,,,,,,,,,,,,,,,,,
5/2/2014 11:00,427,,,,,,,,,,,,,,,,,
5/2/2014 12:00,402,,,,,,,,,,,,,,,,,
5/2/2014 13:00,342,,,,,,,,,,,,,,,,,
5/2/2014 14:00,345,,,,,,,,,,,,,,,,,
5/2/2014 15:00,385,,,,,,,,,,,,,,,,,
5/2/2014 16:00,384,,,,,,,,,,,,,,,,,
5/2/2014 17:00,379,,,,,,,,,,,,,,,,,
5/2/2014 18:00,382,,,,,,,,,,,,,,,,,
5/2/2014 19:00,368,,,,,,,,,,,,,,,,,
5/2/2014 20:00,358,,,,,,,,,,,,,,,,,
5/2/2014 21:00,346,,,,,,,,,,,,,,,,,
5/2/2014 22:00,315,,,,,,,,,,,,,,,,,
5/2/2014 23:00,296,,,,,,,,,,,,,,,,,
5/3/2014 0:00,309,,,,,,,,,,,,,,,,,
5/3/2014 1:00,260,,,,,,,,,,,,,,,,,
5/3/2014 2:00,230,,,,,,,,,,,,,,,,,
5/3/2014 3:00,233,,,,,,,,,,,,,,,,,
5/3/2014 4:00,263,,,,,,,,,,,,,,,,,
5/3/2014 5:00,269,,,,,,,,,,,,,,,,,
5/3/2014 6:00,279,,,,,,,,,,,,,,,,,
5/3/2014 7:00,291,,,,,,,,,,,,,,,,,
5/3/2014 8:00,299,,,,,,,,,,,,,,,,,
5/3/2014 9:00,321,,,,,,,,,,,,,,,,,
5/3/2014 10:00,318,,,,,,,,,,,,,,,,,
5/3/2014 11:00,314,,,,,,,,,,,,,,,,,
5/3/2014 12:00,308,,,,,,,,,,,,,,,,,
5/3/2014 13:00,310,,,,,,,,,,,,,,,,,
5/3/2014 14:00,311,,,,,,,,,,,,,,,,,
5/3/2014 15:00,302,,,,,,,,,,,,,,,,,
5/3/2014 16:00,296,,,,,,,,,,,,,,,,,
5/3/2014 17:00,308,,,,,,,,,,,,,,,,,
5/3/2014 18:00,321,,,,,,,,,,,,,,,,,
5/3/2014 19:00,310,,,,,,,,,,,,,,,,,
5/3/2014 20:00,302,,,,,,,,,,,,,,,,,
5/3/2014 21:00,299,,,,,,,,,,,,,,,,,
5/3/2014 22:00,288,,,,,,,,,,,,,,,,,
5/3/2014 23:00,277,,,,,,,,,,,,,,,,,
5/4/2014 0:00,246,,,,,,,,,,,,,,,,,
5/4/2014 1:00,222,,,,,,,,,,,,,,,,,
5/4/2014 2:00,204,,,,,,,,,,,,,,,,,
5/4/2014 3:00,207,,,,,,,,,,,,,,,,,
5/4/2014 4:00,212,,,,,,,,,,,,,,,,,
5/4/2014 5:00,216,,,,,,,,,,,,,,,,,
5/4/2014 6:00,211,,,,,,,,,,,,,,,,,
5/4/2014 7:00,216,,,,,,,,,,,,,,,,,
5/4/2014 8:00,203,,,,,,,,,,,,,,,,,
5/4/2014 9:00,212,,,,,,,,,,,,,,,,,
5/4/2014 10:00,225,,,,,,,,,,,,,,,,,
5/4/2014 11:00,234,,,,,,,,,,,,,,,,,
5/4/2014 12:00,236,,,,,,,,,,,,,,,,,
5/4/2014 13:00,259,,,,,,,,,,,,,,,,,
5/4/2014 14:00,299,,,,,,,,,,,,,,,,,
5/4/2014 15:00,307,,,,,,,,,,,,,,,,,
5/4/2014 16:00,311,,,,,,,,,,,,,,,,,
5/4/2014 17:00,339,,,,,,,,,,,,,,,,,
5/4/2014 18:00,362,,,,,,,,,,,,,,,,,
5/4/2014 19:00,335,,,,,,,,,,,,,,,,,
5/4/2014 20:00,335,,,,,,,,,,,,,,,,,
5/4/2014 21:00,335,,,,,,,,,,,,,,,,,
5/4/2014 22:00,291,,,,,,,,,,,,,,,,,
5/4/2014 23:00,253,,,,,,,,,,,,,,,,,
5/5/2014 0:00,227,,,,,,,,,,,,,,,,,
5/5/2014 1:00,197,,,,,,,,,,,,,,,,,
5/5/2014 2:00,185,,,,,,,,,,,,,,,,,
5/5/2014 3:00,208,,,,,,,,,,,,,,,,,
5/5/2014 4:00,197,,,,,,,,,,,,,,,,,
5/5/2014 5:00,185,,,,,,,,,,,,,,,,,
5/5/2014 6:00,217,,,,,,,,,,,,,,,,,
5/5/2014 7:00,265,,,,,,,,,,,,,,,,,
5/5/2014 8:00,335,,,,,,,,,,,,,,,,,
5/5/2014 9:00,349,,,,,,,,,,,,,,,,,
5/5/2014 10:00,395,,,,,,,,,,,,,,,,,
5/5/2014 11:00,428,,,,,,,,,,,,,,,,,
5/5/2014 12:00,417,,,,,,,,,,,,,,,,,
5/5/2014 13:00,386,,,,,,,,,,,,,,,,,
5/5/2014 14:00,391,,,,,,,,,,,,,,,,,
5/5/2014 15:00,364,,,,,,,,,,,,,,,,,
5/5/2014 16:00,361,,,,,,,,,,,,,,,,,
5/5/2014 17:00,385,,,,,,,,,,,,,,,,,
5/5/2014 18:00,390,,,,,,,,,,,,,,,,,
5/5/2014 19:00,365,,,,,,,,,,,,,,,,,
5/5/2014 20:00,346,,,,,,,,,,,,,,,,,
5/5/2014 21:00,355,,,,,,,,,,,,,,,,,
5/5/2014 22:00,348,,,,,,,,,,,,,,,,,
5/5/2014 23:00,339,,,,,,,,,,,,,,,,,
5/6/2014 0:00,305,,,,,,,,,,,,,,,,,
5/6/2014 1:00,264,,,,,,,,,,,,,,,,,
5/6/2014 2:00,246,,,,,,,,,,,,,,,,,
5/6/2014 3:00,241,,,,,,,,,,,,,,,,,
5/6/2014 4:00,248,,,,,,,,,,,,,,,,,
5/6/2014 5:00,252,,,,,,,,,,,,,,,,,
5/6/2014 6:00,281,,,,,,,,,,,,,,,,,
5/6/2014 7:00,342,,,,,,,,,,,,,,,,,
5/6/2014 8:00,408,,,,,,,,,,,,,,,,,
5/6/2014 9:00,410,,,,,,,,,,,,,,,,,
5/6/2014 10:00,408,,,,,,,,,,,,,,,,,
5/6/2014 11:00,391,,,,,,,,,,,,,,,,,
5/6/2014 12:00,389,,,,,,,,,,,,,,,,,
5/6/2014 13:00,364,,,,,,,,,,,,,,,,,
5/6/2014 14:00,354,,,,,,,,,,,,,,,,,
5/6/2014 15:00,358,,,,,,,,,,,,,,,,,
5/6/2014 16:00,354,,,,,,,,,,,,,,,,,
5/6/2014 17:00,352,,,,,,,,,,,,,,,,,
5/6/2014 18:00,368,,,,,,,,,,,,,,,,,
5/6/2014 19:00,377,,,,,,,,,,,,,,,,,
5/6/2014 20:00,366,,,,,,,,,,,,,,,,,
5/6/2014 21:00,389,,,,,,,,,,,,,,,,,
5/6/2014 22:00,391,,,,,,,,,,,,,,,,,
5/6/2014 23:00,329,,,,,,,,,,,,,,,,,
5/7/2014 0:00,256,,,,,,,,,,,,,,,,,
5/7/2014 1:00,236,,,,,,,,,,,,,,,,,
5/7/2014 2:00,195,,,,,,,,,,,,,,,,,
5/7/2014 3:00,193,,,,,,,,,,,,,,,,,
5/7/2014 4:00,200,,,,,,,,,,,,,,,,,
5/7/2014 5:00,223,,,,,,,,,,,,,,,,,
5/7/2014 6:00,238,,,,,,,,,,,,,,,,,
5/7/2014 7:00,340,,,,,,,,,,,,,,,,,
5/7/2014 8:00,375,,,,,,,,,,,,,,,,,
5/7/2014 9:00,327,,,,,,,,,,,,,,,,,
5/7/2014 10:00,299,,,,,,,,,,,,,,,,,
5/7/2014 11:00,302,,,,,,,,,,,,,,,,,
5/7/2014 12:00,294,,,,,,,,,,,,,,,,,
5/7/2014 13:00,293,,,,,,,,,,,,,,,,,
5/7/2014 14:00,337,,,,,,,,,,,,,,,,,
5/7/2014 15:00,331,,,,,,,,,,,,,,,,,
5/7/2014 16:00,318,,,,,,,,,,,,,,,,,
5/7/2014 17:00,341,,,,,,,,,,,,,,,,,
5/7/2014 18:00,353,,,,,,,,,,,,,,,,,
5/7/2014 19:00,325,,,,,,,,,,,,,,,,,
5/7/2014 20:00,306,,,,,,,,,,,,,,,,,
5/7/2014 21:00,334,,,,,,,,,,,,,,,,,
5/7/2014 22:00,351,,,,,,,,,,,,,,,,,
5/7/2014 23:00,295,,,,,,,,,,,,,,,,,
5/8/2014 0:00,279,,,,,,,,,,,,,,,,,
5/8/2014 1:00,262,,,,,,,,,,,,,,,,,
5/8/2014 2:00,241,,,,,,,,,,,,,,,,,
5/8/2014 3:00,232,,,,,,,,,,,,,,,,,
5/8/2014 4:00,233,,,,,,,,,,,,,,,,,
5/8/2014 5:00,223,,,,,,,,,,,,,,,,,
5/8/2014 6:00,249,,,,,,,,,,,,,,,,,
5/8/2014 7:00,309,,,,,,,,,,,,,,,,,
5/8/2014 8:00,365,,,,,,,,,,,,,,,,,
5/8/2014 9:00,363,,,,,,,,,,,,,,,,,
5/8/2014 10:00,378,,,,,,,,,,,,,,,,,
5/8/2014 11:00,398,,,,,,,,,,,,,,,,,
5/8/2014 12:00,428,,,,,,,,,,,,,,,,,
5/8/2014 13:00,414,,,,,,,,,,,,,,,,,
5/8/2014 14:00,381,,,,,,,,,,,,,,,,,
5/8/2014 15:00,359,,,,,,,,,,,,,,,,,
5/8/2014 16:00,347,,,,,,,,,,,,,,,,,
5/8/2014 17:00,348,,,,,,,,,,,,,,,,,
5/8/2014 18:00,365,,,,,,,,,,,,,,,,,
5/8/2014 19:00,341,,,,,,,,,,,,,,,,,
5/8/2014 20:00,340,,,,,,,,,,,,,,,,,
5/8/2014 21:00,374,,,,,,,,,,,,,,,,,
5/8/2014 22:00,382,,,,,,,,,,,,,,,,,
5/8/2014 23:00,351,,,,,,,,,,,,,,,,,
5/9/2014 0:00,335,,,,,,,,,,,,,,,,,
5/9/2014 1:00,320,,,,,,,,,,,,,,,,,
5/9/2014 2:00,307,,,,,,,,,,,,,,,,,
5/9/2014 3:00,302,,,,,,,,,,,,,,,,,
5/9/2014 4:00,303,,,,,,,,,,,,,,,,,
5/9/2014 5:00,296,,,,,,,,,,,,,,,,,
5/9/2014 6:00,349,,,,,,,,,,,,,,,,,
5/9/2014 7:00,384,,,,,,,,,,,,,,,,,
5/9/2014 8:00,439,,,,,,,,,,,,,,,,,
5/9/2014 9:00,441,,,,,,,,,,,,,,,,,
5/9/2014 10:00,424,,,,,,,,,,,,,,,,,
5/9/2014 11:00,404,,,,,,,,,,,,,,,,,
5/9/2014 12:00,397,,,,,,,,,,,,,,,,,
5/9/2014 13:00,378,,,,,,,,,,,,,,,,,
5/9/2014 14:00,352,,,,,,,,,,,,,,,,,
5/9/2014 15:00,330,,,,,,,,,,,,,,,,,
5/9/2014 16:00,336,,,,,,,,,,,,,,,,,
5/9/2014 17:00,344,,,,,,,,,,,,,,,,,
5/9/2014 18:00,347,,,,,,,,,,,,,,,,,
5/9/2014 19:00,362,,,,,,,,,,,,,,,,,
5/9/2014 20:00,360,,,,,,,,,,,,,,,,,
5/9/2014 21:00,340,,,,,,,,,,,,,,,,,
5/9/2014 22:00,324,,,,,,,,,,,,,,,,,
5/9/2014 23:00,305,,,,,,,,,,,,,,,,,
5/10/2014 0:00,299,,,,,,,,,,,,,,,,,
5/10/2014 1:00,243,,,,,,,,,,,,,,,,,
5/10/2014 2:00,221,,,,,,,,,,,,,,,,,
5/10/2014 3:00,195,,,,,,,,,,,,,,,,,
5/10/2014 4:00,184,,,,,,,,,,,,,,,,,
5/10/2014 5:00,204,,,,,,,,,,,,,,,,,
5/10/2014 6:00,221,,,,,,,,,,,,,,,,,
5/10/2014 7:00,224,,,,,,,,,,,,,,,,,
5/10/2014 8:00,276,,,,,,,,,,,,,,,,,
5/10/2014 9:00,345,,,,,,,,,,,,,,,,,
5/10/2014 10:00,380,,,,,,,,,,,,,,,,,
5/10/2014 11:00,395,,,,,,,,,,,,,,,,,
5/10/2014 12:00,402,,,,,,,,,,,,,,,,,
5/10/2014 13:00,367,,,,,,,,,,,,,,,,,
5/10/2014 14:00,335,,,,,,,,,,,,,,,,,
5/10/2014 15:00,311,,,,,,,,,,,,,,,,,
5/10/2014 16:00,310,,,,,,,,,,,,,,,,,
5/10/2014 17:00,345,,,,,,,,,,,,,,,,,
5/10/2014 18:00,366,,,,,,,,,,,,,,,,,
5/10/2014 19:00,367,,,,,,,,,,,,,,,,,
5/10/2014 20:00,366,,,,,,,,,,,,,,,,,
5/10/2014 21:00,368,,,,,,,,,,,,,,,,,
5/10/2014 22:00,363,,,,,,,,,,,,,,,,,
5/10/2014 23:00,358,,,,,,,,,,,,,,,,,
5/11/2014 0:00,295,,,,,,,,,,,,,,,,,
5/11/2014 1:00,249,,,,,,,,,,,,,,,,,
5/11/2014 2:00,246,,,,,,,,,,,,,,,,,
5/11/2014 3:00,203,,,,,,,,,,,,,,,,,
5/11/2014 4:00,193,,,,,,,,,,,,,,,,,
5/11/2014 5:00,203,,,,,,,,,,,,,,,,,
5/11/2014 6:00,207,,,,,,,,,,,,,,,,,
5/11/2014 7:00,199,,,,,,,,,,,,,,,,,
5/11/2014 8:00,239,,,,,,,,,,,,,,,,,
5/11/2014 9:00,287,,,,,,,,,,,,,,,,,
5/11/2014 10:00,331,,,,,,,,,,,,,,,,,
5/11/2014 11:00,343,,,,,,,,,,,,,,,,,
5/11/2014 12:00,343,,,,,,,,,,,,,,,,,
5/11/2014 13:00,341,,,,,,,,,,,,,,,,,
5/11/2014 14:00,302,,,,,,,,,,,,,,,,,
5/11/2014 15:00,281,,,,,,,,,,,,,,,,,
5/11/2014 16:00,251,,,,,,,,,,,,,,,,,
5/11/2014 17:00,260,,,,,,,,,,,,,,,,,
5/11/2014 18:00,265,,,,,,,,,,,,,,,,,
5/11/2014 19:00,247,,,,,,,,,,,,,,,,,
5/11/2014 20:00,257,,,,,,,,,,,,,,,,,
5/11/2014 21:00,277,,,,,,,,,,,,,,,,,
5/11/2014 22:00,297,,,,,,,,,,,,,,,,,
5/11/2014 23:00,282,,,,,,,,,,,,,,,,,
5/12/2014 0:00,220,,,,,,,,,,,,,,,,,
5/12/2014 1:00,175,,,,,,,,,,,,,,,,,
5/12/2014 2:00,160,,,,,,,,,,,,,,,,,
5/12/2014 3:00,148,,,,,,,,,,,,,,,,,
5/12/2014 4:00,155,,,,,,,,,,,,,,,,,
5/12/2014 5:00,160,,,,,,,,,,,,,,,,,
5/12/2014 6:00,209,,,,,,,,,,,,,,,,,
5/12/2014 7:00,284,,,,,,,,,,,,,,,,,
5/12/2014 8:00,351,,,,,,,,,,,,,,,,,
5/12/2014 9:00,380,,,,,,,,,,,,,,,,,
5/12/2014 10:00,386,,,,,,,,,,,,,,,,,
5/12/2014 11:00,390,,,,,,,,,,,,,,,,,
5/12/2014 12:00,402,,,,,,,,,,,,,,,,,
5/12/2014 13:00,388,,,,,,,,,,,,,,,,,
5/12/2014 14:00,373,,,,,,,,,,,,,,,,,
5/12/2014 15:00,337,,,,,,,,,,,,,,,,,
5/12/2014 16:00,325,,,,,,,,,,,,,,,,,
5/12/2014 17:00,338,,,,,,,,,,,,,,,,,
5/12/2014 18:00,348,,,,,,,,,,,,,,,,,
5/12/2014 19:00,358,,,,,,,,,,,,,,,,,
5/12/2014 20:00,367,,,,,,,,,,,,,,,,,
5/12/2014 21:00,410,,,,,,,,,,,,,,,,,
5/12/2014 22:00,431,,,,,,,,,,,,,,,,,
5/12/2014 23:00,401,,,,,,,,,,,,,,,,,
5/13/2014 0:00,328,,,,,,,,,,,,,,,,,
5/13/2014 1:00,288,,,,,,,,,,,,,,,,,
5/13/2014 2:00,274,,,,,,,,,,,,,,,,,
5/13/2014 3:00,293,,,,,,,,,,,,,,,,,
5/13/2014 4:00,291,,,,,,,,,,,,,,,,,
5/13/2014 5:00,280,,,,,,,,,,,,,,,,,
5/13/2014 6:00,289,,,,,,,,,,,,,,,,,
5/13/2014 7:00,352,,,,,,,,,,,,,,,,,
5/13/2014 8:00,431,,,,,,,,,,,,,,,,,
5/13/2014 9:00,387,,,,,,,,,,,,,,,,,
5/13/2014 10:00,349,,,,,,,,,,,,,,,,,
5/13/2014 11:00,344,,,,,,,,,,,,,,,,,
5/13/2014 12:00,344,,,,,,,,,,,,,,,,,
5/13/2014 13:00,344,,,,,,,,,,,,,,,,,
5/13/2014 14:00,344,,,,,,,,,,,,,,,,,
5/13/2014 15:00,339,,,,,,,,,,,,,,,,,
5/13/2014 16:00,337,,,,,,,,,,,,,,,,,
5/13/2014 17:00,353,,,,,,,,,,,,,,,,,
5/13/2014 18:00,362,,,,,,,,,,,,,,,,,
5/13/2014 19:00,354,,,,,,,,,,,,,,,,,
5/13/2014 20:00,356,,,,,,,,,,,,,,,,,
5/13/2014 21:00,339,,,,,,,,,,,,,,,,,
5/13/2014 22:00,354,,,,,,,,,,,,,,,,,
5/13/2014 23:00,340,,,,,,,,,,,,,,,,,
5/14/2014 0:00,296,,,,,,,,,,,,,,,,,
5/14/2014 1:00,272,,,,,,,,,,,,,,,,,
5/14/2014 2:00,235,,,,,,,,,,,,,,,,,
5/14/2014 3:00,218,,,,,,,,,,,,,,,,,
5/14/2014 4:00,221,,,,,,,,,,,,,,,,,
5/14/2014 5:00,243,,,,,,,,,,,,,,,,,
5/14/2014 6:00,292,,,,,,,,,,,,,,,,,
5/14/2014 7:00,339,,,,,,,,,,,,,,,,,
5/14/2014 8:00,373,,,,,,,,,,,,,,,,,
5/14/2014 9:00,366,,,,,,,,,,,,,,,,,
5/14/2014 10:00,339,,,,,,,,,,,,,,,,,
5/14/2014 11:00,346,,,,,,,,,,,,,,,,,
5/14/2014 12:00,343,,,,,,,,,,,,,,,,,
5/14/2014 13:00,329,,,,,,,,,,,,,,,,,
5/14/2014 14:00,308,,,,,,,,,,,,,,,,,
5/14/2014 15:00,295,,,,,,,,,,,,,,,,,
5/14/2014 16:00,304,,,,,,,,,,,,,,,,,
5/14/2014 17:00,302,,,,,,,,,,,,,,,,,
5/14/2014 18:00,305,,,,,,,,,,,,,,,,,
5/14/2014 19:00,292,,,,,,,,,,,,,,,,,
5/14/2014 20:00,297,,,,,,,,,,,,,,,,,
5/14/2014 21:00,313,,,,,,,,,,,,,,,,,
5/14/2014 22:00,309,,,,,,,,,,,,,,,,,
5/14/2014 23:00,290,,,,,,,,,,,,,,,,,
5/15/2014 0:00,294,,,,,,,,,,,,,,,,,
5/15/2014 1:00,253,,,,,,,,,,,,,,,,,
5/15/2014 2:00,229,,,,,,,,,,,,,,,,,
5/15/2014 3:00,226,,,,,,,,,,,,,,,,,
5/15/2014 4:00,225,,,,,,,,,,,,,,,,,
5/15/2014 5:00,244,,,,,,,,,,,,,,,,,
5/15/2014 6:00,276,,,,,,,,,,,,,,,,,
5/15/2014 7:00,255,,,,,,,,,,,,,,,,,
5/15/2014 8:00,321,,,,,,,,,,,,,,,,,
5/15/2014 9:00,356,,,,,,,,,,,,,,,,,
5/15/2014 10:00,358,,,,,,,,,,,,,,,,,
5/15/2014 11:00,351,,,,,,,,,,,,,,,,,
5/15/2014 12:00,329,,,,,,,,,,,,,,,,,
5/15/2014 13:00,317,,,,,,,,,,,,,,,,,
5/15/2014 14:00,316,,,,,,,,,,,,,,,,,
5/15/2014 15:00,305,,,,,,,,,,,,,,,,,
5/15/2014 16:00,308,,,,,,,,,,,,,,,,,
5/15/2014 17:00,318,,,,,,,,,,,,,,,,,
5/15/2014 18:00,312,,,,,,,,,,,,,,,,,
5/15/2014 19:00,284,,,,,,,,,,,,,,,,,
5/15/2014 20:00,277,,,,,,,,,,,,,,,,,
5/15/2014 21:00,289,,,,,,,,,,,,,,,,,
5/15/2014 22:00,308,,,,,,,,,,,,,,,,,
5/15/2014 23:00,258,,,,,,,,,,,,,,,,,
5/16/2014 0:00,218,,,,,,,,,,,,,,,,,
5/16/2014 1:00,195,,,,,,,,,,,,,,,,,
5/16/2014 2:00,204,,,,,,,,,,,,,,,,,
5/16/2014 3:00,237,,,,,,,,,,,,,,,,,
5/16/2014 4:00,196,,,,,,,,,,,,,,,,,
5/16/2014 5:00,189,,,,,,,,,,,,,,,,,
5/16/2014 6:00,202,,,,,,,,,,,,,,,,,
5/16/2014 7:00,236,,,,,,,,,,,,,,,,,
5/16/2014 8:00,282,,,,,,,,,,,,,,,,,
5/16/2014 9:00,318,,,,,,,,,,,,,,,,,
5/16/2014 10:00,331,,,,,,,,,,,,,,,,,
5/16/2014 11:00,340,,,,,,,,,,,,,,,,,
5/16/2014 12:00,373,,,,,,,,,,,,,,,,,
5/16/2014 13:00,365,,,,,,,,,,,,,,,,,
5/16/2014 14:00,359,,,,,,,,,,,,,,,,,
5/16/2014 15:00,320,,,,,,,,,,,,,,,,,
5/16/2014 16:00,315,,,,,,,,,,,,,,,,,
5/16/2014 17:00,307,,,,,,,,,,,,,,,,,
5/16/2014 18:00,291,,,,,,,,,,,,,,,,,
5/16/2014 19:00,289,,,,,,,,,,,,,,,,,
5/16/2014 20:00,269,,,,,,,,,,,,,,,,,
5/16/2014 21:00,270,,,,,,,,,,,,,,,,,
5/16/2014 22:00,281,,,,,,,,,,,,,,,,,
5/16/2014 23:00,245,,,,,,,,,,,,,,,,,
5/17/2014 0:00,202,,,,,,,,,,,,,,,,,
5/17/2014 1:00,153,,,,,,,,,,,,,,,,,
5/17/2014 2:00,146,,,,,,,,,,,,,,,,,
5/17/2014 3:00,148,,,,,,,,,,,,,,,,,
5/17/2014 4:00,144,,,,,,,,,,,,,,,,,
5/17/2014 5:00,133,,,,,,,,,,,,,,,,,
5/17/2014 6:00,128,,,,,,,,,,,,,,,,,
5/17/2014 7:00,133,,,,,,,,,,,,,,,,,
5/17/2014 8:00,165,,,,,,,,,,,,,,,,,
5/17/2014 9:00,212,,,,,,,,,,,,,,,,,
5/17/2014 10:00,241,,,,,,,,,,,,,,,,,
5/17/2014 11:00,255,,,,,,,,,,,,,,,,,
5/17/2014 12:00,245,,,,,,,,,,,,,,,,,
5/17/2014 13:00,258,,,,,,,,,,,,,,,,,
5/17/2014 14:00,259,,,,,,,,,,,,,,,,,
5/17/2014 15:00,240,,,,,,,,,,,,,,,,,
5/17/2014 16:00,223,,,,,,,,,,,,,,,,,
5/17/2014 17:00,219,,,,,,,,,,,,,,,,,
5/17/2014 18:00,150,,,,,,,,,,,,,,,,,
5/17/2014 19:00,188,,,,,,,,,,,,,,,,,
5/17/2014 20:00,168,,,,,,,,,,,,,,,,,
5/17/2014 21:00,170,,,,,,,,,,,,,,,,,
5/17/2014 22:00,186,,,,,,,,,,,,,,,,,
5/17/2014 23:00,167,,,,,,,,,,,,,,,,,
5/18/2014 0:00,149,,,,,,,,,,,,,,,,,
5/18/2014 1:00,110,,,,,,,,,,,,,,,,,
5/18/2014 2:00,126,,,,,,,,,,,,,,,,,
5/18/2014 3:00,138,,,,,,,,,,,,,,,,,
5/18/2014 4:00,134,,,,,,,,,,,,,,,,,
5/18/2014 5:00,129,,,,,,,,,,,,,,,,,
5/18/2014 6:00,134,,,,,,,,,,,,,,,,,
5/18/2014 7:00,146,,,,,,,,,,,,,,,,,
5/18/2014 8:00,161,,,,,,,,,,,,,,,,,
5/18/2014 9:00,211,,,,,,,,,,,,,,,,,
5/18/2014 10:00,258,,,,,,,,,,,,,,,,,
5/18/2014 11:00,232,,,,,,,,,,,,,,,,,
5/18/2014 12:00,229,,,,,,,,,,,,,,,,,
5/18/2014 13:00,236,,,,,,,,,,,,,,,,,
5/18/2014 14:00,224,,,,,,,,,,,,,,,,,
5/18/2014 15:00,214,,,,,,,,,,,,,,,,,
5/18/2014 16:00,229,,,,,,,,,,,,,,,,,
5/18/2014 17:00,280,,,,,,,,,,,,,,,,,
5/18/2014 18:00,296,,,,,,,,,,,,,,,,,
5/18/2014 19:00,286,,,,,,,,,,,,,,,,,
5/18/2014 20:00,266,,,,,,,,,,,,,,,,,
5/18/2014 21:00,258,,,,,,,,,,,,,,,,,
5/18/2014 22:00,251,,,,,,,,,,,,,,,,,
5/18/2014 23:00,218,,,,,,,,,,,,,,,,,
5/19/2014 0:00,189,,,,,,,,,,,,,,,,,
5/19/2014 1:00,180,,,,,,,,,,,,,,,,,
5/19/2014 2:00,133,,,,,,,,,,,,,,,,,
5/19/2014 3:00,130,,,,,,,,,,,,,,,,,
5/19/2014 4:00,135,,,,,,,,,,,,,,,,,
5/19/2014 5:00,140,,,,,,,,,,,,,,,,,
5/19/2014 6:00,156,,,,,,,,,,,,,,,,,
5/19/2014 7:00,159,,,,,,,,,,,,,,,,,
5/19/2014 8:00,197,,,,,,,,,,,,,,,,,
5/19/2014 9:00,241,,,,,,,,,,,,,,,,,
5/19/2014 10:00,287,,,,,,,,,,,,,,,,,
5/19/2014 11:00,298,,,,,,,,,,,,,,,,,
5/19/2014 12:00,268,,,,,,,,,,,,,,,,,
5/19/2014 13:00,289,,,,,,,,,,,,,,,,,
5/19/2014 14:00,297,,,,,,,,,,,,,,,,,
5/19/2014 15:00,306,,,,,,,,,,,,,,,,,
5/19/2014 16:00,316,,,,,,,,,,,,,,,,,
5/19/2014 17:00,353,,,,,,,,,,,,,,,,,
5/19/2014 18:00,356,,,,,,,,,,,,,,,,,
5/19/2014 19:00,336,,,,,,,,,,,,,,,,,
5/19/2014 20:00,337,,,,,,,,,,,,,,,,,
5/19/2014 21:00,341,,,,,,,,,,,,,,,,,
5/19/2014 22:00,317,,,,,,,,,,,,,,,,,
5/19/2014 23:00,250,,,,,,,,,,,,,,,,,
5/20/2014 0:00,259,,,,,,,,,,,,,,,,,
5/20/2014 1:00,267,,,,,,,,,,,,,,,,,
5/20/2014 2:00,219,,,,,,,,,,,,,,,,,
5/20/2014 3:00,189,,,,,,,,,,,,,,,,,
5/20/2014 4:00,191,,,,,,,,,,,,,,,,,
5/20/2014 5:00,202,,,,,,,,,,,,,,,,,
5/20/2014 6:00,206,,,,,,,,,,,,,,,,,
5/20/2014 7:00,236,,,,,,,,,,,,,,,,,
5/20/2014 8:00,299,,,,,,,,,,,,,,,,,
5/20/2014 9:00,324,,,,,,,,,,,,,,,,,
5/20/2014 10:00,333,,,,,,,,,,,,,,,,,
5/20/2014 11:00,331,,,,,,,,,,,,,,,,,
5/20/2014 12:00,334,,,,,,,,,,,,,,,,,
5/20/2014 13:00,334,,,,,,,,,,,,,,,,,
5/20/2014 14:00,324,,,,,,,,,,,,,,,,,
5/20/2014 15:00,315,,,,,,,,,,,,,,,,,
5/20/2014 16:00,319,,,,,,,,,,,,,,,,,
5/20/2014 17:00,343,,,,,,,,,,,,,,,,,
5/20/2014 18:00,355,,,,,,,,,,,,,,,,,
5/20/2014 19:00,340,,,,,,,,,,,,,,,,,
5/20/2014 20:00,345,,,,,,,,,,,,,,,,,
5/20/2014 21:00,410,,,,,,,,,,,,,,,,,
5/20/2014 22:00,414,,,,,,,,,,,,,,,,,
5/20/2014 23:00,351,,,,,,,,,,,,,,,,,
5/21/2014 0:00,333,,,,,,,,,,,,,,,,,
5/21/2014 1:00,280,,,,,,,,,,,,,,,,,
5/21/2014 2:00,257,,,,,,,,,,,,,,,,,
5/21/2014 3:00,246,,,,,,,,,,,,,,,,,
5/21/2014 4:00,230,,,,,,,,,,,,,,,,,
5/21/2014 5:00,219,,,,,,,,,,,,,,,,,
5/21/2014 6:00,233,,,,,,,,,,,,,,,,,
5/21/2014 7:00,241,,,,,,,,,,,,,,,,,
5/21/2014 8:00,314,,,,,,,,,,,,,,,,,
5/21/2014 9:00,334,,,,,,,,,,,,,,,,,
5/21/2014 10:00,322,,,,,,,,,,,,,,,,,
5/21/2014 11:00,304,,,,,,,,,,,,,,,,,
5/21/2014 12:00,304,,,,,,,,,,,,,,,,,
5/21/2014 13:00,296,,,,,,,,,,,,,,,,,
5/21/2014 14:00,294,,,,,,,,,,,,,,,,,
5/21/2014 15:00,301,,,,,,,,,,,,,,,,,
5/21/2014 16:00,299,,,,,,,,,,,,,,,,,
5/21/2014 17:00,314,,,,,,,,,,,,,,,,,
5/21/2014 18:00,313,,,,,,,,,,,,,,,,,
5/21/2014 19:00,296,,,,,,,,,,,,,,,,,
5/21/2014 20:00,300,,,,,,,,,,,,,,,,,
5/21/2014 21:00,320,,,,,,,,,,,,,,,,,
5/21/2014 22:00,337,,,,,,,,,,,,,,,,,
5/21/2014 23:00,279,,,,,,,,,,,,,,,,,
5/22/2014 0:00,216,,,,,,,,,,,,,,,,,
5/22/2014 1:00,176,,,,,,,,,,,,,,,,,
5/22/2014 2:00,135,,,,,,,,,,,,,,,,,
5/22/2014 3:00,109,,,,,,,,,,,,,,,,,
5/22/2014 4:00,103,,,,,,,,,,,,,,,,,
5/22/2014 5:00,113,,,,,,,,,,,,,,,,,
5/22/2014 6:00,147,,,,,,,,,,,,,,,,,
5/22/2014 7:00,216,,,,,,,,,,,,,,,,,
5/22/2014 8:00,281,,,,,,,,,,,,,,,,,
5/22/2014 9:00,306,,,,,,,,,,,,,,,,,
5/22/2014 10:00,307,,,,,,,,,,,,,,,,,
5/22/2014 11:00,311,,,,,,,,,,,,,,,,,
5/22/2014 12:00,310,,,,,,,,,,,,,,,,,
5/22/2014 13:00,300,,,,,,,,,,,,,,,,,
5/22/2014 14:00,291,,,,,,,,,,,,,,,,,
5/22/2014 15:00,294,,,,,,,,,,,,,,,,,
5/22/2014 16:00,317,,,,,,,,,,,,,,,,,
5/22/2014 17:00,335,,,,,,,,,,,,,,,,,
5/22/2014 18:00,334,,,,,,,,,,,,,,,,,
5/22/2014 19:00,307,,,,,,,,,,,,,,,,,
5/22/2014 20:00,296,,,,,,,,,,,,,,,,,
5/22/2014 21:00,297,,,,,,,,,,,,,,,,,
5/22/2014 22:00,308,,,,,,,,,,,,,,,,,
5/22/2014 23:00,272,,,,,,,,,,,,,,,,,
5/23/2014 0:00,247,,,,,,,,,,,,,,,,,
5/23/2014 1:00,204,,,,,,,,,,,,,,,,,
5/23/2014 2:00,154,,,,,,,,,,,,,,,,,
5/23/2014 3:00,157,,,,,,,,,,,,,,,,,
5/23/2014 4:00,158,,,,,,,,,,,,,,,,,
5/23/2014 5:00,165,,,,,,,,,,,,,,,,,
5/23/2014 6:00,195,,,,,,,,,,,,,,,,,
5/23/2014 7:00,246,,,,,,,,,,,,,,,,,
5/23/2014 8:00,311,,,,,,,,,,,,,,,,,
5/23/2014 9:00,324,,,,,,,,,,,,,,,,,
5/23/2014 10:00,334,,,,,,,,,,,,,,,,,
5/23/2014 11:00,343,,,,,,,,,,,,,,,,,
5/23/2014 12:00,319,,,,,,,,,,,,,,,,,
5/23/2014 13:00,308,,,,,,,,,,,,,,,,,
5/23/2014 14:00,289,,,,,,,,,,,,,,,,,
5/23/2014 15:00,291,,,,,,,,,,,,,,,,,
5/23/2014 16:00,293,,,,,,,,,,,,,,,,,
5/23/2014 17:00,314,,,,,,,,,,,,,,,,,
5/23/2014 18:00,327,,,,,,,,,,,,,,,,,
5/23/2014 19:00,308,,,,,,,,,,,,,,,,,
5/23/2014 20:00,288,,,,,,,,,,,,,,,,,
5/23/2014 21:00,270,,,,,,,,,,,,,,,,,
5/23/2014 22:00,271,,,,,,,,,,,,,,,,,
5/23/2014 23:00,233,,,,,,,,,,,,,,,,,
5/24/2014 0:00,211,,,,,,,,,,,,,,,,,
5/24/2014 1:00,183,,,,,,,,,,,,,,,,,
5/24/2014 2:00,157,,,,,,,,,,,,,,,,,
5/24/2014 3:00,166,,,,,,,,,,,,,,,,,
5/24/2014 4:00,176,,,,,,,,,,,,,,,,,
5/24/2014 5:00,187,,,,,,,,,,,,,,,,,
5/24/2014 6:00,213,,,,,,,,,,,,,,,,,
5/24/2014 7:00,215,,,,,,,,,,,,,,,,,
5/24/2014 8:00,239,,,,,,,,,,,,,,,,,
5/24/2014 9:00,290,,,,,,,,,,,,,,,,,
5/24/2014 10:00,317,,,,,,,,,,,,,,,,,
5/24/2014 11:00,342,,,,,,,,,,,,,,,,,
5/24/2014 12:00,364,,,,,,,,,,,,,,,,,
5/24/2014 13:00,370,,,,,,,,,,,,,,,,,
5/24/2014 14:00,324,,,,,,,,,,,,,,,,,
5/24/2014 15:00,294,,,,,,,,,,,,,,,,,
5/24/2014 16:00,314,,,,,,,,,,,,,,,,,
5/24/2014 17:00,334,,,,,,,,,,,,,,,,,
5/24/2014 18:00,372,,,,,,,,,,,,,,,,,
5/24/2014 19:00,379,,,,,,,,,,,,,,,,,
5/24/2014 20:00,355,,,,,,,,,,,,,,,,,
5/24/2014 21:00,326,,,,,,,,,,,,,,,,,
5/24/2014 22:00,327,,,,,,,,,,,,,,,,,
5/24/2014 23:00,294,,,,,,,,,,,,,,,,,
5/25/2014 0:00,254,,,,,,,,,,,,,,,,,
5/25/2014 1:00,191,,,,,,,,,,,,,,,,,
5/25/2014 2:00,185,,,,,,,,,,,,,,,,,
5/25/2014 3:00,203,,,,,,,,,,,,,,,,,
5/25/2014 4:00,211,,,,,,,,,,,,,,,,,
5/25/2014 5:00,221,,,,,,,,,,,,,,,,,
5/25/2014 6:00,231,,,,,,,,,,,,,,,,,
5/25/2014 7:00,253,,,,,,,,,,,,,,,,,
5/25/2014 8:00,265,,,,,,,,,,,,,,,,,
5/25/2014 9:00,320,,,,,,,,,,,,,,,,,
5/25/2014 10:00,349,,,,,,,,,,,,,,,,,
5/25/2014 11:00,365,,,,,,,,,,,,,,,,,
5/25/2014 12:00,389,,,,,,,,,,,,,,,,,
5/25/2014 13:00,387,,,,,,,,,,,,,,,,,
5/25/2014 14:00,371,,,,,,,,,,,,,,,,,
5/25/2014 15:00,362,,,,,,,,,,,,,,,,,
5/25/2014 16:00,342,,,,,,,,,,,,,,,,,
5/25/2014 17:00,368,,,,,,,,,,,,,,,,,
5/25/2014 18:00,384,,,,,,,,,,,,,,,,,
5/25/2014 19:00,365,,,,,,,,,,,,,,,,,
5/25/2014 20:00,354,,,,,,,,,,,,,,,,,
5/25/2014 21:00,369,,,,,,,,,,,,,,,,,
5/25/2014 22:00,397,,,,,,,,,,,,,,,,,
5/25/2014 23:00,351,,,,,,,,,,,,,,,,,
5/26/2014 0:00,300,,,,,,,,,,,,,,,,,
5/26/2014 1:00,292,,,,,,,,,,,,,,,,,
5/26/2014 2:00,288,,,,,,,,,,,,,,,,,
5/26/2014 3:00,282,,,,,,,,,,,,,,,,,
5/26/2014 4:00,281,,,,,,,,,,,,,,,,,
5/26/2014 5:00,284,,,,,,,,,,,,,,,,,
5/26/2014 6:00,303,,,,,,,,,,,,,,,,,
5/26/2014 7:00,347,,,,,,,,,,,,,,,,,
5/26/2014 8:00,379,,,,,,,,,,,,,,,,,
5/26/2014 9:00,388,,,,,,,,,,,,,,,,,
5/26/2014 10:00,372,,,,,,,,,,,,,,,,,
5/26/2014 11:00,374,,,,,,,,,,,,,,,,,
5/26/2014 12:00,380,,,,,,,,,,,,,,,,,
5/26/2014 13:00,414,,,,,,,,,,,,,,,,,
5/26/2014 14:00,423,,,,,,,,,,,,,,,,,
5/26/2014 15:00,437,,,,,,,,,,,,,,,,,
5/26/2014 16:00,438,,,,,,,,,,,,,,,,,
5/26/2014 17:00,465,,,,,,,,,,,,,,,,,
5/26/2014 18:00,461,,,,,,,,,,,,,,,,,
5/26/2014 19:00,411,,,,,,,,,,,,,,,,,
5/26/2014 20:00,394,,,,,,,,,,,,,,,,,
5/26/2014 21:00,380,,,,,,,,,,,,,,,,,
5/26/2014 22:00,358,,,,,,,,,,,,,,,,,
5/26/2014 23:00,358,,,,,,,,,,,,,,,,,
5/27/2014 0:00,328,,,,,,,,,,,,,,,,,
5/27/2014 1:00,281,,,,,,,,,,,,,,,,,
5/27/2014 2:00,243,,,,,,,,,,,,,,,,,
5/27/2014 3:00,229,,,,,,,,,,,,,,,,,
5/27/2014 4:00,233,,,,,,,,,,,,,,,,,
5/27/2014 5:00,221,,,,,,,,,,,,,,,,,
5/27/2014 6:00,219,,,,,,,,,,,,,,,,,
5/27/2014 7:00,320,,,,,,,,,,,,,,,,,
5/27/2014 8:00,393,,,,,,,,,,,,,,,,,
5/27/2014 9:00,432,,,,,,,,,,,,,,,,,
5/27/2014 10:00,428,,,,,,,,,,,,,,,,,
5/27/2014 11:00,431,,,,,,,,,,,,,,,,,
5/27/2014 12:00,409,,,,,,,,,,,,,,,,,
5/27/2014 13:00,389,,,,,,,,,,,,,,,,,
5/27/2014 14:00,382,,,,,,,,,,,,,,,,,
5/27/2014 15:00,386,,,,,,,,,,,,,,,,,
5/27/2014 16:00,389,,,,,,,,,,,,,,,,,
5/27/2014 17:00,400,,,,,,,,,,,,,,,,,
5/27/2014 18:00,408,,,,,,,,,,,,,,,,,
5/27/2014 19:00,404,,,,,,,,,,,,,,,,,